SWA634 KELP-KHOU

Flight info

Callsign SWA634
Flight time 1h 27m
Altitude 41000
Route NEVUE3 FST J138 CSI REUBE SAT BELLR6
Aircraft B737/M-SADE2E3GIJ4RWZ/LB1D1

Departure

Time 2026-04-26 12:14
Airport El Paso International Airport (KELP)

Arrival

Time 2026-04-26 13:41
Airport William P. Hobby Airport (KHOU)
Time Latitude Longitude Altitude Speed Heading
2026-04-26 12:03 31.80079 -106.39343 3946 ft 0 kts 196°
2026-04-26 12:03 31.80089 -106.39340 3946 ft 3 kts 196°
2026-04-26 12:04 31.80108 -106.39334 3946 ft 3 kts 196°
2026-04-26 12:04 31.80128 -106.39328 3946 ft 3 kts 195°
2026-04-26 12:04 31.80135 -106.39325 3946 ft 0 kts 195°
2026-04-26 12:06 31.80133 -106.39319 3946 ft 2 kts 114°
2026-04-26 12:07 31.80149 -106.39294 3946 ft 7 kts 58°
2026-04-26 12:07 31.80213 -106.39280 3946 ft 13 kts 317°
2026-04-26 12:07 31.80292 -106.39260 3946 ft 14 kts 42°
2026-04-26 12:07 31.80373 -106.39170 3946 ft 16 kts 43°
2026-04-26 12:08 31.80453 -106.39085 3946 ft 15 kts 34°
2026-04-26 12:08 31.80530 -106.38997 3946 ft 17 kts 44°
2026-04-26 12:08 31.80614 -106.38904 3946 ft 17 kts 43°
2026-04-26 12:08 31.80698 -106.38813 3946 ft 18 kts 43°
2026-04-26 12:09 31.80814 -106.38685 3946 ft 24 kts 45°
2026-04-26 12:09 31.80918 -106.38544 3946 ft 23 kts 50°
2026-04-26 12:09 31.81019 -106.38405 3946 ft 22 kts 50°
2026-04-26 12:09 31.81114 -106.38271 3946 ft 21 kts 50°
2026-04-26 12:10 31.81223 -106.38119 3945 ft 26 kts 50°
2026-04-26 12:10 31.81334 -106.37965 3946 ft 24 kts 50°
2026-04-26 12:10 31.81438 -106.37819 3946 ft 23 kts 50°
2026-04-26 12:10 31.81538 -106.37681 3946 ft 22 kts 50°
2026-04-26 12:11 31.81636 -106.37544 3946 ft 21 kts 50°
2026-04-26 12:11 31.81730 -106.37411 3946 ft 21 kts 50°
2026-04-26 12:11 31.81822 -106.37283 3945 ft 20 kts 49°
2026-04-26 12:11 31.81912 -106.37160 3945 ft 20 kts 49°
2026-04-26 12:12 31.81999 -106.37041 3945 ft 19 kts 50°
2026-04-26 12:12 31.82084 -106.36926 3945 ft 18 kts 44°
2026-04-26 12:12 31.82191 -106.36957 3945 ft 17 kts 321°
2026-04-26 12:12 31.82253 -106.37014 3945 ft 12 kts 322°
2026-04-26 12:13 31.82179 -106.37164 3944 ft 49 kts 230°
2026-04-26 12:13 31.81779 -106.37724 3947 ft 126 kts 230°
2026-04-26 12:13 31.81082 -106.38702 4021 ft 182 kts 229°
2026-04-26 12:13 31.80172 -106.39900 4535 ft 208 kts 220°
2026-04-26 12:14 31.78768 -106.40627 4947 ft 238 kts 184°
2026-04-26 12:14 31.77162 -106.40114 5814 ft 248 kts 148°
2026-04-26 12:14 31.75889 -106.38661 6572 ft 269 kts 129°
2026-04-26 12:14 31.74738 -106.36814 7234 ft 286 kts 123°
2026-04-26 12:15 31.73687 -106.34777 8137 ft 294 kts 122°
2026-04-26 12:15 31.72622 -106.32687 9047 ft 301 kts 122°
2026-04-26 12:15 31.71594 -106.30528 9873 ft 310 kts 118°
2026-04-26 12:15 31.70638 -106.28193 10536 ft 327 kts 117°
2026-04-26 12:16 31.69626 -106.25697 10792 ft 355 kts 118°
2026-04-26 12:16 31.68525 -106.23033 11452 ft 366 kts 118°
2026-04-26 12:16 31.67386 -106.20313 12282 ft 371 kts 120°
2026-04-26 12:16 31.66181 -106.17664 13109 ft 375 kts 123°
2026-04-26 12:17 31.64883 -106.14963 13965 ft 379 kts 124°
2026-04-26 12:17 31.63574 -106.12261 14808 ft 383 kts 124°
2026-04-26 12:17 31.62268 -106.09554 15634 ft 388 kts 124°
2026-04-26 12:17 31.60936 -106.06767 16422 ft 392 kts 124°
2026-04-26 12:18 31.59592 -106.03945 17174 ft 398 kts 125°
2026-04-26 12:18 31.58235 -106.01093 17933 ft 402 kts 126°
2026-04-26 12:18 31.56774 -105.98326 18653 ft 403 kts 130°
2026-04-26 12:18 31.55173 -105.95595 19328 ft 407 kts 131°
2026-04-26 12:19 31.53542 -105.92883 19995 ft 413 kts 131°
2026-04-26 12:19 31.51882 -105.90093 20678 ft 418 kts 131°
2026-04-26 12:19 31.50240 -105.87291 21304 ft 423 kts 130°
2026-04-26 12:19 31.48568 -105.84412 21927 ft 428 kts 130°
2026-04-26 12:20 31.47165 -105.81252 22502 ft 446 kts 111°
2026-04-26 12:20 31.46465 -105.77701 23097 ft 454 kts 105°
2026-04-26 12:20 31.45862 -105.74040 23662 ft 459 kts 104°
2026-04-26 12:20 31.45274 -105.70343 24219 ft 464 kts 104°
2026-04-26 12:21 31.44674 -105.66603 24807 ft 467 kts 104°
2026-04-26 12:21 31.44062 -105.62875 25342 ft 471 kts 105°
2026-04-26 12:21 31.43422 -105.59066 25846 ft 476 kts 105°
2026-04-26 12:21 31.42778 -105.55302 26318 ft 480 kts 105°
2026-04-26 12:22 31.42110 -105.51447 26809 ft 483 kts 106°
2026-04-26 12:22 31.41431 -105.47559 27275 ft 487 kts 106°
2026-04-26 12:22 31.40751 -105.43666 27764 ft 490 kts 106°
2026-04-26 12:22 31.40070 -105.39781 28199 ft 493 kts 106°
2026-04-26 12:23 31.39375 -105.35817 28607 ft 497 kts 106°
2026-04-26 12:23 31.38674 -105.31830 29001 ft 502 kts 106°
2026-04-26 12:23 31.37975 -105.27854 29370 ft 506 kts 106°
2026-04-26 12:23 31.37260 -105.23794 29770 ft 508 kts 106°
2026-04-26 12:24 31.36541 -105.19712 30190 ft 511 kts 107°
2026-04-26 12:24 31.35826 -105.15661 30543 ft 514 kts 106°
2026-04-26 12:24 31.35097 -105.11544 30841 ft 519 kts 106°
2026-04-26 12:25 31.33618 -105.03224 31527 ft 524 kts 106°
2026-04-26 12:25 31.32875 -104.99053 31966 ft 524 kts 106°
2026-04-26 12:25 31.32134 -104.94893 32417 ft 524 kts 106°
2026-04-26 12:25 31.31391 -104.90734 32759 ft 525 kts 106°
2026-04-26 12:26 31.30638 -104.86536 33122 ft 526 kts 106°
2026-04-26 12:26 31.29882 -104.82333 33507 ft 526 kts 106°
2026-04-26 12:26 31.29134 -104.78180 33834 ft 527 kts 106°
2026-04-26 12:26 31.28374 -104.73963 34161 ft 528 kts 106°
2026-04-26 12:27 31.27612 -104.69743 34525 ft 527 kts 106°
2026-04-26 12:27 31.26858 -104.65569 34833 ft 528 kts 106°
2026-04-26 12:27 31.26352 -104.62779 34987 ft 530 kts 106°
2026-04-26 12:27 31.25328 -104.57152 35328 ft 532 kts 106°
2026-04-26 12:28 31.24815 -104.54336 35524 ft 532 kts 106°
2026-04-26 12:28 31.23790 -104.48711 35941 ft 532 kts 106°
2026-04-26 12:28 31.23274 -104.45888 36130 ft 532 kts 106°
2026-04-26 12:28 31.22503 -104.41687 36382 ft 532 kts 106°
2026-04-26 12:29 31.21722 -104.37437 36605 ft 534 kts 106°
2026-04-26 12:29 31.20937 -104.33162 36881 ft 533 kts 106°
2026-04-26 12:29 31.19394 -104.24765 37731 ft 524 kts 107°
2026-04-26 12:30 31.18637 -104.20660 38001 ft 523 kts 106°
2026-04-26 12:30 31.17075 -104.12255 37981 ft 528 kts 106°
2026-04-26 12:31 31.14757 -103.99792 37948 ft 520 kts 106°
2026-04-26 12:31 31.13215 -103.91555 37957 ft 519 kts 106°
2026-04-26 12:32 31.11671 -103.83347 37953 ft 518 kts 106°
2026-04-26 12:33 31.09349 -103.71037 37951 ft 517 kts 106°
2026-04-26 12:33 31.07797 -103.62851 37942 ft 517 kts 106°
2026-04-26 12:34 31.06238 -103.54657 37936 ft 518 kts 106°
2026-04-26 12:34 31.04672 -103.46456 37954 ft 521 kts 106°
2026-04-26 12:35 31.03082 -103.38166 38129 ft 528 kts 106°
2026-04-26 12:35 31.02276 -103.33975 38374 ft 527 kts 106°
2026-04-26 12:35 31.01481 -103.29841 38621 ft 526 kts 106°
2026-04-26 12:36 30.99874 -103.21513 38892 ft 529 kts 106°
2026-04-26 12:36 30.98234 -103.13058 38925 ft 537 kts 106°
2026-04-26 12:37 30.96609 -103.04571 38815 ft 536 kts 106°
2026-04-26 12:37 30.95765 -103.00313 38584 ft 536 kts 107°
2026-04-26 12:37 30.94910 -102.96151 38323 ft 530 kts 108°
2026-04-26 12:37 30.93944 -102.92048 38070 ft 521 kts 110°
2026-04-26 12:38 30.92906 -102.88011 37813 ft 515 kts 111°
2026-04-26 12:38 30.91853 -102.84066 37568 ft 511 kts 111°
2026-04-26 12:38 30.90793 -102.80119 37322 ft 508 kts 111°
2026-04-26 12:38 30.89745 -102.76193 37072 ft 505 kts 111°
2026-04-26 12:39 30.88711 -102.72275 36929 ft 503 kts 111°
2026-04-26 12:39 30.86682 -102.64507 36915 ft 505 kts 111°
2026-04-26 12:40 30.84646 -102.56675 36916 ft 507 kts 111°
2026-04-26 12:40 30.82594 -102.48787 36915 ft 507 kts 111°
2026-04-26 12:41 30.80553 -102.40971 36926 ft 507 kts 111°
2026-04-26 12:41 30.78496 -102.33126 36916 ft 507 kts 111°
2026-04-26 12:42 30.76434 -102.25272 36905 ft 506 kts 111°
2026-04-26 12:42 30.74383 -102.17490 36905 ft 505 kts 111°
2026-04-26 12:43 30.72311 -102.09660 36891 ft 504 kts 111°
2026-04-26 12:43 30.70257 -102.01906 36898 ft 503 kts 111°
2026-04-26 12:44 30.68207 -101.94190 36899 ft 501 kts 110°
2026-04-26 12:44 30.66145 -101.86451 36893 ft 499 kts 110°
2026-04-26 12:45 30.64095 -101.78776 36907 ft 498 kts 110°
2026-04-26 12:45 30.62041 -101.71111 36905 ft 497 kts 111°
2026-04-26 12:46 30.59993 -101.63486 36922 ft 496 kts 110°
2026-04-26 12:46 30.57925 -101.55807 36914 ft 497 kts 110°
2026-04-26 12:47 30.55870 -101.48196 36907 ft 497 kts 111°
2026-04-26 12:47 30.53801 -101.40556 36909 ft 498 kts 111°
2026-04-26 12:48 30.51715 -101.32876 36928 ft 498 kts 111°
2026-04-26 12:48 30.49632 -101.25209 36920 ft 499 kts 111°
2026-04-26 12:49 30.47543 -101.17525 36913 ft 499 kts 110°
2026-04-26 12:49 30.45453 -101.09870 36920 ft 500 kts 110°
2026-04-26 12:50 30.43338 -101.02155 36918 ft 501 kts 111°
2026-04-26 12:50 30.41222 -100.94454 36934 ft 501 kts 111°
2026-04-26 12:51 30.39112 -100.86797 36928 ft 502 kts 110°
2026-04-26 12:51 30.36979 -100.79070 36929 ft 502 kts 110°
2026-04-26 12:52 30.34856 -100.71400 36922 ft 502 kts 110°
2026-04-26 12:52 30.32731 -100.63741 36927 ft 501 kts 110°
2026-04-26 12:53 30.30589 -100.56050 36916 ft 501 kts 110°
2026-04-26 12:53 30.28445 -100.48365 36918 ft 501 kts 110°
2026-04-26 12:54 30.26312 -100.40741 36902 ft 500 kts 110°
2026-04-26 12:54 30.24159 -100.33063 36906 ft 499 kts 110°
2026-04-26 12:55 30.22023 -100.25463 36902 ft 499 kts 110°
2026-04-26 12:55 30.19869 -100.17827 36913 ft 498 kts 110°
2026-04-26 12:56 30.17724 -100.10229 36908 ft 496 kts 110°
2026-04-26 12:56 30.15584 -100.02661 36914 ft 496 kts 110°
2026-04-26 12:57 30.13440 -99.95127 36907 ft 495 kts 110°
2026-04-26 12:57 30.11285 -99.87560 36911 ft 495 kts 110°
2026-04-26 12:58 30.08056 -99.76242 36915 ft 496 kts 110°
2026-04-26 12:58 30.05883 -99.68654 36908 ft 497 kts 110°
2026-04-26 12:59 30.03719 -99.61120 36902 ft 497 kts 111°
2026-04-26 12:59 30.01529 -99.53510 36905 ft 498 kts 111°
2026-04-26 13:00 29.99350 -99.45958 36901 ft 499 kts 110°
2026-04-26 13:00 29.97153 -99.38357 36900 ft 499 kts 110°
2026-04-26 13:01 29.94957 -99.30791 36902 ft 499 kts 110°
2026-04-26 13:01 29.92739 -99.23164 36891 ft 499 kts 110°
2026-04-26 13:02 29.90277 -99.15761 36902 ft 497 kts 115°
2026-04-26 13:02 29.87518 -99.08409 36897 ft 497 kts 116°
2026-04-26 13:03 29.84787 -99.01125 36897 ft 497 kts 115°
2026-04-26 13:03 29.82082 -98.93805 36893 ft 496 kts 115°
2026-04-26 13:04 29.79390 -98.86505 36889 ft 496 kts 115°
2026-04-26 13:04 29.76687 -98.79201 36888 ft 497 kts 115°
2026-04-26 13:05 29.73970 -98.71865 36891 ft 496 kts 115°
2026-04-26 13:05 29.71270 -98.64576 36884 ft 496 kts 115°
2026-04-26 13:06 29.68570 -98.57305 36884 ft 496 kts 115°
2026-04-26 13:06 29.65844 -98.49985 36880 ft 496 kts 115°
2026-04-26 13:07 29.63600 -98.42504 36877 ft 498 kts 101°
2026-04-26 13:07 29.62462 -98.34655 36868 ft 498 kts 98°
2026-04-26 13:08 29.61433 -98.26804 36854 ft 499 kts 99°
2026-04-26 13:08 29.60301 -98.18916 36849 ft 499 kts 99°
2026-04-26 13:09 29.59110 -98.11102 36845 ft 499 kts 100°
2026-04-26 13:09 29.57893 -98.03245 36787 ft 500 kts 100°
2026-04-26 13:10 29.57280 -97.99294 36295 ft 502 kts 100°
2026-04-26 13:10 29.56673 -97.95377 35787 ft 501 kts 100°
2026-04-26 13:10 29.56067 -97.91451 35363 ft 497 kts 100°
2026-04-26 13:10 29.55465 -97.87559 34949 ft 493 kts 100°
2026-04-26 13:11 29.54863 -97.83687 34519 ft 489 kts 100°
2026-04-26 13:11 29.54262 -97.79827 34050 ft 491 kts 100°
2026-04-26 13:11 29.53649 -97.75905 33608 ft 508 kts 100°
2026-04-26 13:11 29.53028 -97.71924 33132 ft 517 kts 100°
2026-04-26 13:12 29.52389 -97.67836 32620 ft 515 kts 99°
2026-04-26 13:12 29.51754 -97.63786 32118 ft 511 kts 99°
2026-04-26 13:12 29.51125 -97.59782 31611 ft 507 kts 99°
2026-04-26 13:12 29.50506 -97.55851 31112 ft 504 kts 100°
2026-04-26 13:13 29.49880 -97.51886 30612 ft 501 kts 99°
2026-04-26 13:13 29.49264 -97.47997 30113 ft 497 kts 99°
2026-04-26 13:13 29.48646 -97.44107 29615 ft 494 kts 99°
2026-04-26 13:13 29.48030 -97.40228 29118 ft 490 kts 99°
2026-04-26 13:14 29.47424 -97.36419 28623 ft 487 kts 99°
2026-04-26 13:14 29.46818 -97.32616 28121 ft 482 kts 99°
2026-04-26 13:14 29.46214 -97.28846 27618 ft 476 kts 99°
2026-04-26 13:14 29.45619 -97.25128 27119 ft 470 kts 99°
2026-04-26 13:15 29.45028 -97.21445 26623 ft 465 kts 99°
2026-04-26 13:15 29.44443 -97.17807 26116 ft 461 kts 99°
2026-04-26 13:15 29.43869 -97.14245 25614 ft 456 kts 99°
2026-04-26 13:15 29.43487 -97.11883 25291 ft 453 kts 99°
2026-04-26 13:16 29.42722 -97.07153 24617 ft 447 kts 99°
2026-04-26 13:16 29.42163 -97.03697 24124 ft 442 kts 99°
2026-04-26 13:16 29.41601 -97.00230 23622 ft 438 kts 99°
2026-04-26 13:16 29.41050 -96.96808 23126 ft 433 kts 98°
2026-04-26 13:17 29.40325 -96.90006 22126 ft 425 kts 94°
2026-04-26 13:17 29.40052 -96.86684 21635 ft 421 kts 94°
2026-04-26 13:18 29.39479 -96.80053 20629 ft 413 kts 95°
2026-04-26 13:18 29.39176 -96.76789 20118 ft 410 kts 95°
2026-04-26 13:18 29.38561 -96.70378 19144 ft 403 kts 95°
2026-04-26 13:19 29.38256 -96.67206 18929 ft 396 kts 95°
2026-04-26 13:19 29.38056 -96.65118 18907 ft 396 kts 95°
2026-04-26 13:19 29.37750 -96.61978 18882 ft 395 kts 95°
2026-04-26 13:19 29.37443 -96.58845 18878 ft 395 kts 95°
2026-04-26 13:20 29.37036 -96.54694 18878 ft 395 kts 95°
2026-04-26 13:20 29.36832 -96.52613 18879 ft 395 kts 95°
2026-04-26 13:20 29.36524 -96.49478 18785 ft 397 kts 95°
2026-04-26 13:20 29.36217 -96.46331 18499 ft 397 kts 95°
2026-04-26 13:21 29.35910 -96.43183 18217 ft 394 kts 95°
2026-04-26 13:21 29.35604 -96.40056 17861 ft 393 kts 95°
2026-04-26 13:21 29.35299 -96.36947 17510 ft 389 kts 95°
2026-04-26 13:21 29.34999 -96.33916 17160 ft 384 kts 95°
2026-04-26 13:22 29.34699 -96.30897 16794 ft 379 kts 95°
2026-04-26 13:22 29.34401 -96.27901 16390 ft 375 kts 95°
2026-04-26 13:22 29.34105 -96.24941 15993 ft 372 kts 95°
2026-04-26 13:22 29.33811 -96.22003 15594 ft 369 kts 95°
2026-04-26 13:23 29.33518 -96.19085 15188 ft 367 kts 95°
2026-04-26 13:23 29.33227 -96.16179 14792 ft 364 kts 96°
2026-04-26 13:23 29.32940 -96.13312 14392 ft 361 kts 96°
2026-04-26 13:23 29.32780 -96.10493 13984 ft 358 kts 83°
2026-04-26 13:24 29.33409 -96.07768 13595 ft 350 kts 62°
2026-04-26 13:24 29.34696 -96.05481 13182 ft 333 kts 50°
2026-04-26 13:24 29.36116 -96.03430 12756 ft 322 kts 48°
2026-04-26 13:24 29.37494 -96.01495 12360 ft 313 kts 48°
2026-04-26 13:25 29.38854 -95.99577 11957 ft 309 kts 49°
2026-04-26 13:25 29.40212 -95.97640 11573 ft 310 kts 49°
2026-04-26 13:25 29.41562 -95.95696 11175 ft 311 kts 49°
2026-04-26 13:25 29.42880 -95.93784 10769 ft 306 kts 50°
2026-04-26 13:26 29.44187 -95.91883 10361 ft 300 kts 50°
2026-04-26 13:26 29.45466 -95.90021 10039 ft 295 kts 51°
2026-04-26 13:26 29.46737 -95.88143 10027 ft 299 kts 54°
2026-04-26 13:26 29.47674 -95.86007 9845 ft 300 kts 69°
2026-04-26 13:27 29.48390 -95.83762 9644 ft 299 kts 70°
2026-04-26 13:27 29.49086 -95.81506 9386 ft 298 kts 71°
2026-04-26 13:27 29.49778 -95.79278 9131 ft 294 kts 71°
2026-04-26 13:27 29.50470 -95.77081 8873 ft 291 kts 71°
2026-04-26 13:28 29.51155 -95.74923 8627 ft 288 kts 71°
2026-04-26 13:28 29.51847 -95.72759 8374 ft 286 kts 71°
2026-04-26 13:28 29.52533 -95.70624 8124 ft 284 kts 71°
2026-04-26 13:28 29.53208 -95.68524 7876 ft 282 kts 71°
2026-04-26 13:29 29.53886 -95.66419 7642 ft 280 kts 71°
2026-04-26 13:29 29.54333 -95.65029 7482 ft 279 kts 71°
2026-04-26 13:29 29.55232 -95.62233 7160 ft 277 kts 71°
2026-04-26 13:29 29.55902 -95.60152 7057 ft 278 kts 71°
2026-04-26 13:30 29.56578 -95.58053 6950 ft 283 kts 71°
2026-04-26 13:30 29.57266 -95.55914 6750 ft 285 kts 71°
2026-04-26 13:30 29.57949 -95.53790 6541 ft 282 kts 72°
2026-04-26 13:30 29.58613 -95.51723 6348 ft 276 kts 72°
2026-04-26 13:31 29.59276 -95.49658 6160 ft 274 kts 72°
2026-04-26 13:31 29.59936 -95.47597 6062 ft 276 kts 72°
2026-04-26 13:31 29.60551 -95.45538 6014 ft 274 kts 81°
2026-04-26 13:31 29.60660 -95.43381 6029 ft 268 kts 93°
2026-04-26 13:32 29.60620 -95.41232 6018 ft 269 kts 94°
2026-04-26 13:32 29.60578 -95.39079 6023 ft 270 kts 94°
2026-04-26 13:32 29.60550 -95.36910 6016 ft 272 kts 91°
2026-04-26 13:32 29.60714 -95.34739 6021 ft 273 kts 85°
2026-04-26 13:33 29.60950 -95.32580 5914 ft 272 kts 85°
2026-04-26 13:33 29.61192 -95.30477 5779 ft 264 kts 84°
2026-04-26 13:33 29.61435 -95.28400 5611 ft 259 kts 84°
2026-04-26 13:33 29.61677 -95.26361 5438 ft 255 kts 84°
2026-04-26 13:34 29.61948 -95.24330 5261 ft 256 kts 83°
2026-04-26 13:34 29.62458 -95.22417 5077 ft 252 kts 63°
2026-04-26 13:34 29.63532 -95.20832 4988 ft 250 kts 49°
2026-04-26 13:34 29.64310 -95.19845 4863 ft 250 kts 50°
2026-04-26 13:35 29.65857 -95.17883 4623 ft 248 kts 50°
2026-04-26 13:35 29.67042 -95.16457 4446 ft 248 kts 47°
2026-04-26 13:35 29.68252 -95.15059 4234 ft 248 kts 47°
2026-04-26 13:35 29.69479 -95.13657 4017 ft 246 kts 46°
2026-04-26 13:36 29.70690 -95.12285 3808 ft 246 kts 46°
2026-04-26 13:36 29.71974 -95.10968 3521 ft 250 kts 32°
2026-04-26 13:36 29.73660 -95.10466 3134 ft 253 kts 354°
2026-04-26 13:36 29.75215 -95.11190 2745 ft 240 kts 316°
2026-04-26 13:37 29.76001 -95.12767 2338 ft 222 kts 275°
2026-04-26 13:37 29.75717 -95.14407 2052 ft 200 kts 238°
2026-04-26 13:37 29.75081 -95.15781 2001 ft 191 kts 236°
2026-04-26 13:37 29.74290 -95.16976 2014 ft 187 kts 225°
2026-04-26 13:38 29.73401 -95.18056 2019 ft 189 kts 221°
2026-04-26 13:38 29.72451 -95.19106 1993 ft 184 kts 220°
2026-04-26 13:38 29.71546 -95.20101 1773 ft 180 kts 220°
2026-04-26 13:38 29.70645 -95.21093 1530 ft 177 kts 220°
2026-04-26 13:39 29.69757 -95.22073 1294 ft 176 kts 221°
2026-04-26 13:39 29.68919 -95.22993 1161 ft 159 kts 220°
2026-04-26 13:39 29.68137 -95.23841 888 ft 153 kts 224°
2026-04-26 13:39 29.67373 -95.24717 700 ft 156 kts 219°
2026-04-26 13:40 29.66594 -95.25561 501 ft 154 kts 222°
2026-04-26 13:40 29.65820 -95.26419 206 ft 152 kts 220°
2026-04-26 13:40 29.65087 -95.27228 59 ft 136 kts 220°
2026-04-26 13:40 29.64508 -95.27871 51 ft 86 kts 224°
2026-04-26 13:41 29.64332 -95.28160 51 ft 22 kts 258°
2026-04-26 13:41 29.64347 -95.28287 51 ft 16 kts 319°
2026-04-26 13:41 29.64447 -95.28265 51 ft 16 kts 43°
2026-04-26 13:41 29.64526 -95.28179 51 ft 15 kts 44°
2026-04-26 13:42 29.64599 -95.28097 51 ft 15 kts 45°
2026-04-26 13:42 29.64688 -95.27997 51 ft 24 kts 43°
2026-04-26 13:42 29.64809 -95.27864 51 ft 23 kts 44°
2026-04-26 13:42 29.64922 -95.27738 51 ft 22 kts 43°
2026-04-26 13:43 29.65026 -95.27655 51 ft 14 kts 355°
2026-04-26 13:43 29.65085 -95.27659 48 ft 6 kts 356°
2026-04-26 13:43 29.65125 -95.27668 51 ft 6 kts 333°
2026-04-26 13:43 29.65144 -95.27733 51 ft 16 kts 265°
2026-04-26 13:44 29.65138 -95.27804 48 ft 1 kts 217°
2026-04-26 13:44 29.65105 -95.27749 51 ft 15 kts 89°
2026-04-26 13:44 29.65146 -95.27661 51 ft 11 kts 26°
2026-04-26 13:44 29.65198 -95.27636 51 ft 0 kts 20°
2026-04-26 13:45 29.65214 -95.27630 48 ft 6 kts 21°
2026-04-26 13:45 29.65228 -95.27623 49 ft 2 kts 22°
2026-04-26 13:45 29.65241 -95.27617 51 ft 2 kts 22°
2026-04-26 13:46 29.65245 -95.27615 51 ft 0 kts 22°
2026-04-26 13:49 29.65253 -95.27661 51 ft 0 kts 356°